Location: Brusselsch Zeekanaal
(50.8667°N, 4.3667°E)
Time: 23:30:40
(UTC+00:00)

SL-16 R/B - Pass Details

Date: 08 November 2025
Orbit: 841 x 844 km, 71.0° (Epoch: 04 December)

Event Time Altitude Azimuth Distance (km) Brightness Sun altitude
Exits shadow 05:48:02 - 312° (NW) 2,606 4.2 -9.5°
Reaches altitude 10° 05:48:55 10° 320° (NW) 2,475 4.1 -9.4°
Maximum altitude 05:50:58 12° 341° (NNW) 2,342 4.2 -9.0°
Drops below altitude 10° 05:53:02 10° 3° (N) 2,477 4.5 -8.7°
Sets 05:57:24 0° 34° (NE) 3,415 5.6 -8.1°
